Regional Weather Roundup
Issued by NWS

Home | Current Version | Previous Version | Text Only | Print | Product List | Glossary On
Versions: 1 2 3 4 5 6 7 8 9 10 11 12 13 14 15 16 17 18 19 20 21 22 23 24 25 26 27 28 29 30 31 32 33 34 35 36 37 38 39 40 41 42 43 44 45 46 47 48 49 50
128
ASUS43 KIND 150109
RWRIN

WEATHER ROUNDUP FOR INDIANA
NATIONAL WEATHER SERVICE INDIANAPOLIS IN
800 PM EST THU DEC 14 2017

NOTE: "FAIR" INDICATES FEW OR NO CLOUDS BELOW 12,000 FEET WITH NO
SIGNIFICANT WEATHER AND/OR OBSTRUCTIONS TO VISIBILITY.

* - STATION DOES NOT REPORT WEATHER SUCH AS PRECIPITATION OR FOG.

+ - STATION NOT QUALITY CONTROLLED BY THE NATIONAL WEATHER SERVICE.
    USE DATA WITH CAUTION...ESPECIALLY DEWPOINT AND RELATIVE
    HUMIDITY OBSERVATIONS.

INZ001>003-010>013-019-020-150200-
NORTHWEST INDIANA

CITY           SKY/WX    TMP DP  RH WIND       PRES   REMARKS
GARY /AIRPORT/ PTCLDY    25   9  50 W7        30.09R WCI  17
KNOX *+        CLOUDY    25  18  74 S5        30.08R WCI  19
LA PORTE +     CLOUDY    13  10  87 CALM      30.07S
MICHIGAN CITY+ CLOUDY    23  18  80 S3        30.07S
MONTICELLO +   CLOUDY    23  14  69 CALM      30.07S
RENSSELAER +   CLOUDY    25  16  68 CALM      30.09R
VALPARAISO     CLOUDY    24  15  68 W5        30.07S WCI  18

$$

LMZ046-743>745-150200-
SOUTHERN LAKE MICHIGAN

STATION/POSITION TIME  TEMP    WIND        PRES    WAVE
                       AIR SEA DIR/SP/G            HT
                 (UTC) (F)     (DEG/KT/KT) (MB)    (FT)
BURNS HARBOR     0102   26     220/  6/  9 1019.0
MICHIGAN CITY    0040   25     170/  6/  7   N/A

$$

INZ004-005-014>016-021>024-150200-
NORTH CENTRAL INDIANA

CITY           SKY/WX    TMP DP  RH WIND       PRES   REMARKS
ELKHART        CLOUDY    19  10  68 CALM      30.06S
GOSHEN         CLOUDY    20  12  71 S5        30.06S WCI  13
LOGANSPORT +   CLOUDY    23  18  80 E3        30.08S
PERU/GRISSOM   MOCLDY    23  15  70 CALM      30.06F
ROCHESTER +    CLOUDY    27  18  69 CALM      30.08S
SOUTH BEND     CLOUDY    19  12  74 S8        30.07R WCI   9
WARSAW +       CLOUDY    23  10  58 CALM      30.07S

$$

INZ006>009-017-018-025>027-150200-
NORTHEAST INDIANA

CITY           SKY/WX    TMP DP  RH WIND       PRES   REMARKS
AUBURN +       CLOUDY    19   9  63 CALM      30.08S
FORT WAYNE     CLOUDY    18  11  74 CALM      30.08S
HUNTINGTON +   MOCLDY    21  14  75 CALM      30.08S
KENDALLVILLE + CLOUDY    19  10  65 SW5       30.06S WCI  13

$$

INZ028-029-035-036-043>045-051>053-150200-
WEST CENTRAL INDIANA

CITY           SKY/WX    TMP DP  RH WIND       PRES   REMARKS
CRAWFORDSVL +  CLOUDY    21  14  73 MISG        N/A
GREENCASTLE +  CLOUDY    27   9  46 CALM      30.07S
LAFAYETTE      CLOUDY    25  16  68 E6        30.08S WCI  18
TERRE HAUTE    CLOUDY    27  15  61 CALM      30.09R

$$

INZ030>032-037>040-046>048-054>057-064-065-150200-
CENTRAL INDIANA

CITY           SKY/WX    TMP DP  RH WIND       PRES   REMARKS
COLUMBUS       CLEAR     25  16  68 CALM      30.09F
FRANKFORT +    CLOUDY    25  14  63 SE5       30.08S WCI  19
INDIANAPOLIS   CLOUDY    25  14  63 SE5       30.07S WCI  19
-EAGLE CREEK   CLOUDY    27  11  51 CALM      30.06S
KOKOMO +       CLOUDY    23  17  78 SE3       30.08S
MARION +       CLOUDY    22  15  72 SE3       30.08S
MT COMFORT *+  CLOUDY    21  16  79 CALM      30.07S
SHELBYVILLE    PTCLDY    25  15  66 CALM      30.07F
ZIONSVILLE +   MOCLDY    21  15  75 CALM      30.07F

$$

INZ033-034-041-042-049-050-058-059-150200-
EAST CENTRAL INDIANA

CITY           SKY/WX    TMP DP  RH WIND       PRES   REMARKS
MUNCIE         CLOUDY    23  13  65 SE5       30.07S WCI  17
RICHMOND +     CLOUDY    21  18  86 CALM      30.07S

$$

INZ060-061-067>069-081>083-085>088-150200-
SOUTHWEST INDIANA

CITY           SKY/WX    TMP DP  RH WIND       PRES   REMARKS
EVANSVILLE     CLOUDY    32  21  64 W6        30.11R WCI  26
HUNTINGBURG +  CLOUDY    31  22  69 N5        30.09R WCI  26
WASHINGTON +   CLOUDY    30  20  64 CALM      30.10R

$$

INZ062-063-066-070>080-084-089>092-150200-
SOUTH CENTRAL AND SOUTHEAST INDIANA

CITY           SKY/WX    TMP DP  RH WIND       PRES   REMARKS
BEDFORD +      CLOUDY    27  16  63 E6        30.07  WCI  20
BLOOMINGTON    CLOUDY    29  13  51 NE5       30.07R WCI  24
MADISON *+     CLOUDY    28  19  69 NE6       30.09S WCI  22
NORTH VERNON + CLOUDY    25  16  68 N3        30.08F
SEYMOUR +      CLOUDY    28  18  64 NE5       30.08F WCI  23

$$





USA.gov is the U.S. government's official web portal to all federal, state and local government web resources and services.